Observations
| Time | Sensor | AQI | SAQ | Temp °C | Hum % | Pres Pa | CO μg/m³ | H₂S μg/m³ | NO μg/m³ | NO₂ μg/m³ | O₃ μg/m³ | SO₂ μg/m³ | CO₂e PPM | VOC PPM | PM1 μg/m³ | PM2.5 μg/m³ | PM4 μg/m³ | PM10 μg/m³ | TPS µm |
|---|---|---|---|---|---|---|---|---|---|---|---|---|---|---|---|---|---|---|---|
| Tuesday 11 August 2026 | |||||||||||||||||||
| 02:17 | Trim Patrick St | 1 | 12.3 | 75 | 38,460 | 0.29 | 5.47 | 3.94 | 33.39 | 12.19 | 0 | 2.86 | 5.55 | 6.11 | |||||
| 02:16 | Trim Patrick St | 1 | 12.3 | 75 | 38,460 | 0.28 | 5.47 | 3.94 | 31.57 | 12.42 | 0 | 2.86 | 6.27 | 6.9 | |||||
| 02:15 | Trim Market St | 2 | 14 | 66 | 57,195 | 0.28 | 0 | 3.22 | 15.75 | 41.39 | 0 | 2.14 | 3.71 | 5.59 | |||||
| 02:15 | Trim Patrick St | 1 | 12.3 | 75 | 38,460 | 0.29 | 5.41 | 3.94 | 33.39 | 11.17 | 0 | 3.71 | 7.69 | 8.46 | |||||
| 02:12 | Trim Patrick St | 1 | 12.4 | 74 | 38,460 | 0.28 | 3.86 | 3.91 | 23.09 | 14.79 | 0 | 2.86 | 6.29 | 6.92 | |||||
| 02:10 | Trim Patrick St | 1 | 12.4 | 74 | 38,460 | 0.28 | 6.22 | 3.91 | 36.41 | 9.63 | 0 | 2 | 5.59 | 6.14 | |||||
| 02:09 | Trim Market St | 2 | 14.1 | 66 | 57,360 | 0.28 | 0 | 2.48 | 15.57 | 36.74 | 0 | 1.43 | 2.75 | 5.58 | |||||
| 02:09 | Trim Patrick St | 1 | 12.4 | 74 | 38,460 | 0.28 | 5.91 | 3.91 | 35.95 | 10.86 | 0 | 2.86 | 7.02 | 7.72 | |||||
| 02:08 | Trim Patrick St | 1 | 12.5 | 74 | 38,460 | 0.28 | 5.39 | 3.89 | 33.17 | 10.25 | 0 | 2.86 | 7.02 | 7.73 | |||||
| 02:06 | Trim Market St | 2 | 14.2 | 66 | 57,398 | 0.27 | 0 | 2.49 | 13.51 | 39.09 | 0 | 1.43 | 2.76 | 4.27 | |||||
| 02:06 | Trim Patrick St | 1 | 12.5 | 74 | 38,460 | 0.28 | 5.21 | 3.88 | 31.79 | 9.91 | 0 | 2.86 | 6.32 | 6.96 | |||||
| 02:05 | Trim Market St | 2 | 14.2 | 66 | 57,413 | 0.27 | 0 | 2.48 | 14.58 | 37.3 | 0 | 1.43 | 2.76 | 4.27 | |||||
| 02:05 | Trim Patrick St | 1 | 12.5 | 74 | 38,460 | 0.28 | 5.13 | 3.88 | 29.52 | 11.18 | 0 | 2.86 | 6.32 | 6.96 | |||||
| 02:04 | Trim Market St | 2 | 14.2 | 66 | 57,428 | 0.27 | 0 | 2.61 | 14.05 | 37.97 | 0 | 0.71 | 3.75 | 8.18 | |||||
| 02:04 | Trim Patrick St | 1 | 12.5 | 74 | 38,460 | 0.28 | 5.21 | 3.88 | 30.42 | 11.9 | 0 | 2.86 | 7.04 | 7.75 | |||||
| 02:03 | Trim Market St | 2 | 14.2 | 66 | 57,443 | 0.27 | 0 | 2.26 | 14.3 | 36.58 | 0 | 1.43 | 3.75 | 6.22 | |||||
| 02:02 | Trim Market St | 2 | 14.3 | 66 | 57,457 | 0.27 | 0 | 2.05 | 14.73 | 36.88 | 0 | 1.43 | 3.27 | 5.57 | |||||
| 02:02 | Trim Patrick St | 1 | 12.6 | 74 | 38,460 | 0.27 | 5.27 | 3.85 | 30.33 | 11.81 | 0 | 3.71 | 7.77 | 8.55 | |||||
| 02:01 | Trim Market St | 2 | 14.2 | 66 | 57,470 | 0.27 | 0 | 2.02 | 14.02 | 35.58 | 0 | 1.43 | 3.27 | 4.92 | |||||
| 02:01 | Trim Patrick St | 1 | 12.6 | 74 | 38,460 | 0.27 | 5.34 | 3.85 | 32.14 | 9.58 | 0 | 4.57 | 8.49 | 9.33 | |||||